Flag for USA

Past Weather in Panama City, Florida, USA — Yesterday and Last 2 Weeks

Now
75 °F

Clear.


Feels Like: 74 °F
Forecast: 86 / 77 °F
Wind: 3 mph from Southwest

Location: Tyndall Air Force Base

Current Time: Jul 4, 2020 at 11:56:02 pm

Latest Report: Jul 4, 2020 at 10:56 pm


Visibility: 10 mi

Pressure: 29.92 "Hg

Humidity: 88%

Dew Point: 71 °F

Location of Panama CityLocation

Past Weather in Panama City — Graph

°F

Panama City Temperature Yesterday

Maximum temperature yesterday: 90 °F (at 1:00 pm)
Minimum temperature yesterday: 76 °F (at 11:56 pm)
Average temperature yesterday: 83 °F

High & Low Weather Summary for the Past Weeks

 TemperatureHumidityPressure
High92 °F (Jun 27, 11:56 am)94% (Jun 26, 1:01 am)30.21 "Hg (Jun 26, 1:01 am)
Low73 °F (Jul 2, 3:56 am)50% (Jun 27, 11:56 am)29.86 "Hg (Jul 4, 3:56 pm)
Average82 °F77%30.02 "Hg
* Reported Jun 19 9:56 pm — Jul 4 9:56 pm, Panama City. Weather by CustomWeather, © 2020

Note: Actual official high and low records may vary slightly from our data, if they occured in-between our weather recording intervals... More about our weather records

Panama City Weather History for the Previous 24 Hours

Scroll right to see more
 ConditionsComfort  
Time TempWeatherWind HumidityBarometerVisibility
9:56 pm
Sat, Jul 4
74 °FClear.3 mph91%29.92 "Hg10 mi
9:23 pm73 °FClear.No wind94%29.90 "Hg10 mi
8:56 pm74 °FLight rain. Overcast.3 mph93%29.90 "Hg10 mi
7:56 pm74 °FLight rain. Overcast.5 mph93%29.90 "Hg10 mi
6:56 pm73 °FThunderstorms. Overcast.8 mph93%29.90 "Hg7 mi
6:41 pm73 °FThunderstorms. Fog.8 mph94%29.92 "Hg6 mi
6:19 pm73 °FStrong thunderstorms. Fog.6 mph89%29.91 "Hg1 mi
5:56 pm76 °FThundershowers. Mostly cloudy.8 mph86%29.91 "Hg9 mi
5:36 pm79 °FThundershowers. Partly sunny.9 mph79%29.89 "Hg10 mi
4:56 pm85 °FScattered clouds.14 mph72%29.87 "Hg10 mi
3:56 pm87 °FScattered clouds.13 mph68%29.86 "Hg10 mi
2:56 pm87 °FPassing clouds.15 mph67%29.88 "Hg10 mi
1:56 pm86 °FScattered clouds.13 mph73%29.90 "Hg10 mi
12:56 pm86 °FPartly sunny.10 mph68%29.92 "Hg10 mi
12:36 pm86 °FBroken clouds.9 mph70%29.92 "Hg10 mi
12:21 pm86 °FPartly sunny.9 mph66%29.93 "Hg10 mi
11:56 am86 °FPartly sunny.5 mph66%29.93 "Hg10 mi
11:36 am86 °FBroken clouds.5 mph70%29.93 "Hg10 mi
11:16 am86 °FBroken clouds.No wind66%29.92 "Hg10 mi
10:56 am85 °FPartly sunny.No wind72%29.93 "Hg10 mi
9:56 am83 °FPartly sunny.5 mph77%29.94 "Hg10 mi
8:56 am82 °FScattered clouds.6 mph79%29.93 "Hg10 mi
7:56 am78 °FSunny.8 mph83%29.93 "Hg10 mi
6:56 am76 °FSunny.6 mph89%29.92 "Hg10 mi
5:56 am73 °FSunny.3 mph91%29.90 "Hg10 mi
4:56 am74 °FSunny.6 mph92%29.88 "Hg10 mi
3:56 am74 °FClear.No wind90%29.88 "Hg10 mi
2:56 am74 °FClear.3 mph91%29.89 "Hg10 mi
1:56 am75 °FClear.6 mph87%29.91 "Hg10 mi
12:56 am75 °FClear.7 mph88%29.92 "Hg10 mi
11:56 pm
Fri, Jul 3
76 °FClear.No wind88%29.91 "Hg10 mi
Weather by CustomWeather, © 2020

See weather overview